This is the latest recevied weather packets stored in our database for station/object SQ3MKP-13. If no packets are shown the sender has not sent any weather packets the latest 10 day(s).
| Time | Temp. | Humidity | Pressure | Rain* | Wind** | Luminosity | Snow |
|---|---|---|---|---|---|---|---|
| 1777157924 | 8.33° C | 61% | 1000.8 hPa | - | - | - | - |
| 1777157623 | 8.33° C | 61% | 1000.9 hPa | - | - | - | - |
| 1777157322 | 8.33° C | 61% | 1000.8 hPa | - | - | - | - |
| 1777157021 | 8.33° C | 61% | 1000.7 hPa | - | - | - | - |
| 1777156719 | 8.33° C | 61% | 1000.6 hPa | - | - | - | - |
| 1777156419 | 8.33° C | 61% | 1000.6 hPa | - | - | - | - |
| 1777156117 | 8.33° C | 60% | 1000.6 hPa | - | - | - | - |
| 1777155817 | 8.33° C | 60% | 1000.6 hPa | - | - | - | - |
| 1777155515 | 8.33° C | 59% | 1000.4 hPa | - | - | - | - |
| 1777155214 | 8.33° C | 58% | 1000.4 hPa | - | - | - | - |
| 1777154913 | 8.89° C | 57% | 1000.3 hPa | - | - | - | - |
| 1777154613 | 8.89° C | 56% | 1000.2 hPa | - | - | - | - |
| 1777154312 | 8.89° C | 56% | 1000.2 hPa | - | - | - | - |
| 1777154011 | 8.89° C | 55% | 1000.2 hPa | - | - | - | - |
| 1777153710 | 9.44° C | 55% | 1000 hPa | - | - | - | - |
| 1777153409 | 9.44° C | 54% | 1000 hPa | - | - | - | - |
| 1777153108 | 9.44° C | 52% | 999.9 hPa | - | - | - | - |
| 1777152807 | 9.44° C | 52% | 999.7 hPa | - | - | - | - |
| 1777152507 | 10° C | 53% | 999.7 hPa | - | - | - | - |
| 1777152206 | 10° C | 54% | 999.6 hPa | - | - | - | - |
| 1777151905 | 10° C | 58% | 999.7 hPa | - | - | - | - |
| 1777151604 | 10.56° C | 61% | 999.6 hPa | - | - | - | - |
| 1777151303 | 10.56° C | 61% | 999.6 hPa | - | - | - | - |
| 1777151001 | 10.56° C | 61% | 999.3 hPa | - | - | - | - |
| 1777150701 | 10.56° C | 62% | 999.2 hPa | - | - | - | - |
* Rain since midnight (hover to see other rain measurements)
** Current wind speed in m/s (hover to see current wind gust speed)